STARLINK-1771 (46384 NORAD) Tracking and Keplerian Element Data

This shows tracking and keplerian element data for the satellite.

Feedback or suggestion? Click here.




ElementValue
Catalog46384
NameSTARLINK-1771
Epoch Orbit178
Epoch Day268.91668981
Epoch Year2020
RAAN323.8021
Inclination53.0011
Eccentricity6.75E-05
Argument of Perigee330.756
Mean Anonmoly214.6464
Mean Motion15.62833373
Decay Rate-0.00055308
L11 46384U 20062BM 20268.91668981 -.00055308 00000-0 -60042-3 0 9999
L22 46384 53.0011 323.8021 0000675 330.7560 214.6464 15.62833373 1782

Live tracking and technical data element details for STARLINK-1771 (NORAD 46384). STARLINK-1771 can be tracked NOW for your location showing map with azimuth and elevation plus other details from your city location.

Track the satellite on the map from your city or location and see movement details for azimuth, elevation, latitude, longitude, range, height, and movement on the map or in text.







IsCatalogInMostPopularTable: catalog: 46384, numindb: 13
Update: records affected: 1



GetName: 46384 STARLINK-1771

Hit Count: updated at: Mon, 28 Sep 2020 22:26:32 GMT